User: anonymous   Login
Location: Castro Valley
(37.6940°N, 122.0850°W)
Time: 00:44:30
(UTC-07:00)
Language:

PANSAT - Orbit

View from above orbital plane
View from above orbital plane
View from above satellite
View from above satellite

Ground track
Ground track

The orbit data is extracted from the following two-line orbital elements,

1 25520U 98064B   16151.17920122  .00001180  00000-0  34436-4 0  9993
2 25520  28.4574  71.7305 0005762  77.8412 282.2828 15.27685371975646
Epoch (UTC): 30 May 2016 04:18:02
Eccentricity: 0.0005762
inclination: 28.4574°
perigee height: 479 km
apogee height: 486 km
right ascension of ascending node: 71.7305°
argument of perigee: 77.8412°
revolutions per day: 15.27685371
mean anomaly at epoch: 282.2828°
orbit number at epoch: 97564

The dashed part of the orbit path shows where the satellite is in the earth's shadow,  

DLR